Regional Weather Roundup
Issued by NWS

Home | Current Version | Previous Version | Graphics & Text | Print | Product List | Glossary On
Versions: 1 2 3 4 5 6 7 8 9 10 11 12 13 14 15 16 17 18 19 20 21 22 23 24 25 26 27 28 29 30 31 32 33 34 35 36 37 38 39 40 41 42 43 44 45 46 47 48 49 50
786
ASUS43 KMKX 292221
RWRWI

WISCONSIN REGIONAL WEATHER ROUNDUP
NATIONAL WEATHER SERVICE MILWAUKEE/SULLIVAN WI
500 PM CDT FRI APR 29 2016

NOTE: "FAIR" INDICATES FEW OR NO CLOUDS BELOW 12,000 FEET WITH NO
SIGNIFICANT WEATHER AND/OR OBSTRUCTIONS TO VISIBILITY.

WIZ001-002-006>008-014>016-023>028-292300-
NORTHWEST WISCONSIN

CITY           SKY/WX    TMP DP  RH WIND       PRES   REMARKS
SUPERIOR ARPT  SUNNY     47  32  56 NE8       30.17F
ASHLAND        SUNNY     52  33  48 NE12      30.19R
HAYWARD        SUNNY     55  30  38 N13G21    30.13F
SIREN          MOSUNNY   59  29  32 E6G17     30.11R
CUMBERLAND     SUNNY     57  30  35 N5        30.10F
RICE LAKE      CLOUDY    60  29  31 N8        30.11S
CHETEK         PTSUNNY   58  37  45 S7        30.10S
LADYSMITH      CLOUDY    60  31  32 CALM      30.11S
EAU CLAIRE     MOSUNNY   58  37  45 E9        30.10F
MENOMONIE      MOSUNNY   59  42  52 CALM      30.11F
NEW RICHMOND   MOSUNNY   59  31  35 E6        30.11F
OSCEOLA        SUNNY     60  32  34 SE3       30.14S
$$

WIZ003>005-009-010-017-018-292300-
NORTH CENTRAL WISCONSIN

CITY           SKY/WX    TMP DP  RH WIND       PRES   REMARKS
MANITOWISH WTR PTSUNNY   56  32  39 CALM      30.10R
ARBOR VITAE    CLOUDY    57  34  42 SE3       30.11R
WOODRUFF       CLOUDY    57  34  42 SE3       30.11R
RHINELANDER    MOSUNNY   56  29  35 CALM      30.12R
EAGLE RIVER    CLOUDY    55  28  35 CALM      30.10S
LAND O LAKES   CLOUDY    56  29  36 E8        30.12R
PHILLIPS       CLOUDY    57  33  40 CALM      30.09S
TOMAHAWK       CLOUDY    55  33  42 CALM      30.11S
MEDFORD        CLOUDY    52  38  59 SW5       30.10F
MERRILL        CLOUDY    56  35  46 S5        30.11R
$$

WIZ029-030-035-036-043>047-292300-
CENTRAL WISCONSIN

CITY           SKY/WX    TMP DP  RH WIND       PRES   REMARKS
WAUSAU         CLOUDY    57  33  40 SW5       30.09R
MOSINEE        CLOUDY    54  34  47 VRB5      30.12S
MARSHFIELD     MOSUNNY   57  36  45 N6        30.10F
STEVENS POINT  CLOUDY    54  33  45 NE5       30.12S
WAUPACA        SUNNY     58  32  36 NE3       30.13R
WAUTOMA        MOSUNNY   55  33  43 E8        30.11
WISC RAPIDS    MOSUNNY   57  33  40 SE6       30.12S
CAMP DOUGLAS   MOSUNNY   54  42  63 NE3       30.10F
$$

WIZ011>013-019>022-031-037>040-048>050-292300-
NORTHEAST WISCONSIN

CITY           SKY/WX    TMP DP  RH WIND       PRES   REMARKS
ANTIGO         CLOUDY    54  31  42 CALM      30.11R
SHAWANO        CLOUDY    56  33  42 NE5       30.13S
OCONTO         MOSUNNY   53  28  38 NE5       30.13S
STURGEON BAY   SUNNY     54  28  37 N7        30.16S
GREEN BAY      SUNNY     55  35  47 E7        30.13S
MANITOWOC      SUNNY     53  30  41 E6        30.13R
APPLETON       MOSUNNY   54  30  40 NE13      30.10S
CLINTONVILLE   CLOUDY    54  32  43 E7        30.12S
OSHKOSH        SUNNY     54  34  46 E7        30.12R
$$

WIZ032>034-041-042-053>061-292300-
SOUTHWEST WISCONSIN

CITY           SKY/WX    TMP DP  RH WIND       PRES   REMARKS
LA CROSSE      CLOUDY    53  38  56 E7        30.11F
SPARTA         CLOUDY    52  39  60 N3        30.12S
VIROQUA        CLOUDY    49  37  64 E9        30.12R
BOSCOBEL       CLOUDY    52  38  58 NE3       30.12F
PRAIRIE DU CHI CLOUDY    51  36  57 E3        30.12R
PLATTEVILLE    CLOUDY    49  41  74 NE8       30.10F
$$

WIZ056-057-062-063-064-067-068-292300-
SOUTH CENTRAL WISCONSIN

CITY           SKY/WX    TMP DP  RH WIND       PRES   REMARKS
REEDSBURG      CLOUDY    53  37  54 E6        30.10S
BARABOO/DELLS  CLOUDY    53  36  52 E7        30.10S
LONE ROCK      CLOUDY    53  38  56 E5        30.12S
MINERAL POINT  CLOUDY    50  39  66 E3        30.11F
MADISON        PTSUNNY   51  38  60 SE6       30.12S
MIDDLETON      CLOUDY    51  39  63 SE7       30.12R
WATERTOWN      CLOUDY    53  36  51 E8        30.10S
MONROE         CLOUDY    46  37  71 NE8       30.10F
JANESVILLE     CLOUDY    50  39  66 SE6       30.10F
$$

WIZ051-052-058>065-066-070>072-292300-
SOUTHEAST WISCONSIN

CITY           SKY/WX    TMP DP  RH WIND       PRES   REMARKS
MILWAUKEE      PTSUNNY   44  36  73 NE8       30.14S
WAUKESHA       CLOUDY    46  32  57 NE12G18   30.13S
MILWAUKEE/TIMM SUNNY     46  34  61 NE13      30.14S
RACINE         CLOUDY    44  36  73 NE9       30.15S
BURLINGTON     CLOUDY    47  38  71 E6        30.12F
KENOSHA        CLOUDY    46  38  73 E8        30.13S
FOND DU LAC    SUNNY     56  32  40 NE13      30.11S
SHEBOYGAN      SUNNY     51  30  44 E13       30.13S
WEST BEND      MOSUNNY   52  28  40 E10       30.12S
JUNEAU         CLOUDY    53  34  47 NE6       30.11F
$$

LSZ147-162-292300-
LAKE SUPERIOR

STATION/POSITION TIME  TEMP    WIND        PRES    WAVE
                       AIR SEA DIR/SP/G            HT/PER
                 (UTC) (F)     (DEG/KT/KT) (MB)    (FT/S)
W MID LAKE BUOY  2150   38 37  330/  6/  8 1023.3F   1
DEVILS ISLAND    2200   38      70/  6/  7 1023.6R
SAXON HARBOR     2100   40      20/  5/  6 1021.7F
$$

LMZ867-665-643>646-292300-
LAKE MICHIGAN

STATION/POSITION TIME  TEMP    WIND        PRES    WAVE
                       AIR SEA DIR/SP/G            HT/PER
                 (UTC) (F)     (DEG/KT/KT) (MB)    (FT/S)
CHAMBERS ISLAND  2100   46     340/  4/  6 1020.7F
N MID LAKE BUOY  2150   40 39  340/  4/  6 1019.9F   0
NORTHPORT PIER   2100   47     120/  2/  3 1019.6F
ALGOMA LAKESHORE 2115           70/ 13/ 16   N/A
KEWAUNEE LAKESHO 2100   44      40/  7/  9 1019.0F
SHEBOYGAN LAKESH 2200   41      30/  5/  6 1021.4R
PORT WASHINGTON  2140   44      70/  4/  4 1021.3F
S MID LAKE BUOY  2150   40 40  360/ 10/ 12 1020.4R   1/ 4
KENOSHA   LAKESH 2200   41      40/ 10/ 12 1020.3F
$$

TC  - TEMPERATURE IN CELSIUS
VSB - VISIBILITY IN STATUTE MILES
WCI - WIND CHILL INDEX
HX  - HEAT INDEX





USA.gov is the U.S. government's official web portal to all federal, state and local government web resources and services.